• Join FlightAware (Why Join?)
  • Login
  • US Flag 
09:04PM EST


 

Airport Tracker/Info


-or-


 

Live Flight TrackerFlight Track Log ✈ UAL6002 ✈ 10-Apr-2013 ✈ KICT - KORD

Flight Track Log - Related Links

Times and Time Zones

All times are in EDT time to prevent confusion due to time zone crossing. See the UAL6002 flight status page for this flight to view local times or setup timezone preferences in your user account.

Time Position Orientation Groundspeed Altitude Reporting Facility
EDT Latitude Longitude Course Direction KTS MPH feet Rate Location/Type
10:09PM 37.6625 -97.4164 23° Northeast 165 190 1,700  Level Kansas City Center
10:11PM 37.7175 -97.3867 23° Northeast 192 221 5,200 2,687 Climbing Kansas City Center
10:12PM 37.7836 -97.3542 21° North 254 292 7,700 2,208 Climbing Kansas City Center
10:13PM 37.8567 -97.3061 27° Northeast 302 348 9,800 1,475 Climbing Kansas City Center
10:14PM 37.9333 -97.2358 36° Northeast 341 392 10,700 1,041 Climbing Kansas City Center
10:15PM 38.0300 -97.1908 20° North 372 428 11,900 1,438 Climbing Kansas City Center
10:16PM 38.1306 -97.1469 19° North 381 438 13,600 1,525 Climbing Kansas City Center
10:17PM 38.2300 -97.1022 19° North 382 440 15,000 1,279 Climbing Kansas City Center
10:18PM 38.3342 -97.0556 19° North 395 455 16,200 1,230 Climbing Kansas City Center
10:19PM 38.4422 -97.0078 19° North 409 471 17,500 1,623 Climbing Kansas City Center
10:20PM 38.5717 -96.9503 19° North 411 473 19,500 1,550 Climbing Kansas City Center
10:21PM 38.6814 -96.9000 20° North 419 482 20,600 934 Climbing Kansas City Center
10:22PM 38.7997 -96.8469 19° North 446 513 21,400 829 Climbing Kansas City Center
10:23PM 38.9228 -96.7922 19° North 463 533 22,300 885 Climbing Kansas City Center
10:24PM 39.0586 -96.7303 19° North 480 552 23,200 829 Climbing Kansas City Center
10:25PM 39.1819 -96.6725 20° North 488 562 24,000 671 Climbing Kansas City Center
10:26PM 39.3911 -96.5772 19° North 504 580 25,000 492 Climbing Minneapolis Center
10:27PM 39.4608 -96.5458 19° North 510 587 25,000  Level Kansas City Center
10:28PM 39.5836 -96.4867 20° North 524 603 25,000  Level Kansas City Center
10:29PM 39.7278 -96.4200 20° North 547 629 25,000  Level Kansas City Center
10:30PM 39.8975 -96.3414 20° North 551 634 25,000  Level Kansas City Center
10:31PM 39.9925 -96.2969 20° North 557 641 25,000  Level Minneapolis Center
10:32PM 40.1403 -96.2283 20° North 561 646 25,000  Level Minneapolis Center
10:33PM 40.2867 -96.1600 20° North 561 646 25,000  Level Minneapolis Center
10:34PM 40.4342 -96.0878 20° North 563 648 25,000  Level Minneapolis Center
10:35PM 40.5817 -96.0192 19° North 564 649 25,000  Level Minneapolis Center
10:36PM 40.7286 -95.9489 20° North 564 649 25,000  Level Minneapolis Center
10:37PM 40.9039 -95.8633 20° North 562 647 25,000  Level Minneapolis Center
10:38PM 41.0497 -95.7911 20° North 564 649 25,000  Level Minneapolis Center
10:39PM 41.1383 -95.6917 40° Northeast 552 635 25,000  Level Minneapolis Center
10:40PM 41.2022 -95.4894 67° East 495 570 25,000  Level Minneapolis Center
10:41PM 41.2242 -95.3186 80° East 474 545 25,000  Level Minneapolis Center
10:42PM 41.2464 -95.1492 80° East 469 540 25,000  Level Minneapolis Center
10:43PM 41.2683 -94.9803 80° East 466 536 25,000  Level Minneapolis Center
10:44PM 41.2947 -94.7728 80° East 473 544 25,000  Level Minneapolis Center
10:45PM 41.3167 -94.5997 80° East 476 548 25,000  Level Minneapolis Center
10:46PM 41.3406 -94.4242 80° East 480 552 25,000  Level Minneapolis Center
10:47PM 41.3614 -94.2478 81° East 483 556 25,000  Level Minneapolis Center
10:48PM 41.3819 -94.0831 81° East 483 556 25,000  Level Minneapolis Center
10:49PM 41.4044 -93.9078 80° East 483 556 25,000  Level Minneapolis Center
10:50PM 41.4258 -93.7300 81° East 486 559 25,000  Level Minneapolis Center
10:51PM 41.4803 -93.5247 70° East 497 572 25,000  Level Minneapolis Center
10:52PM 41.5381 -93.3553 65° Northeast 503 579 25,000  Level Minneapolis Center
10:53PM 41.5964 -93.1847 65° Northeast 505 581 25,000  Level Minneapolis Center
10:54PM 41.6542 -93.0144 66° East 506 582 25,000  Level Minneapolis Center
10:55PM 41.7122 -92.8403 66° East 510 587 25,000  Level Minneapolis Center
10:56PM 41.7758 -92.6522 66° East 512 589 25,000  Level Minneapolis Center
10:56PM 41.7867 -92.6156 68° East 515 593 25,000  Level Chicago Center
10:57PM 41.8558 -92.4083 66° East 514 592 25,000  Level Chicago Center
10:59PM 41.9136 -92.2364 66° East 512 589 25,000  Level Chicago Center
11:00PM 41.9667 -92.0728 66° East 488 562 25,000  Level Chicago Center
11:01PM 42.0106 -91.9294 68° East 428 493 25,000  Level Chicago Center
11:02PM 42.0392 -91.7850 75° East 408 470 25,000  Level Chicago Center
11:03PM 42.0692 -91.6386 75° East 411 473 25,000  Level Chicago Center
11:04PM 42.1014 -91.4811 75° East 436 502 25,000  Level Chicago Center
11:05PM 42.1422 -91.2792 75° East 469 540 25,000  Level Chicago Center
11:06PM 42.1772 -91.1053 75° East 481 554 25,000  Level Chicago Center
11:07PM 42.2119 -90.9333 75° East 482 555 25,000  Level Chicago Center
11:08PM 42.2453 -90.7594 75° East 483 556 25,000  Level Chicago Center
11:09PM 42.2800 -90.5864 75° East 483 556 25,000  Level Chicago Center
11:10PM 42.3131 -90.4156 75° East 478 550 25,000 -488 Level Chicago Center
11:11PM 42.3503 -90.2039 77° East 485 558 24,000 -634 Descending Chicago Center
11:12PM 42.3544 -90.0311 88° East 466 536 23,700 -738 Descending Chicago Center
11:13PM 42.3583 -89.8519 88° East 459 528 22,500 -1,366 Descending Chicago Center
11:14PM 42.3625 -89.6892 88° East 438 504 20,900 -1,756 Descending Chicago Center
11:15PM 42.3642 -89.5269 89° East 433 498 18,900 -1,951 Descending Chicago Center
11:16PM 42.3661 -89.3619 89° East 439 505 16,900 -2,049 Descending Chicago Center
11:17PM 42.3686 -89.2008 89° East 432 497 14,700 -1,475 Descending Chicago Center
11:18PM 42.3694 -89.0456 90° East 417 480 13,900 -1,561 Descending Chicago Center
11:19PM 42.3714 -88.8794 89° East 378 435 11,500 -1,756 Descending Chicago Center
11:20PM 42.3728 -88.7561 89° East 335 386 10,300 -1,122 Descending Chicago Center
11:21PM 42.3733 -88.6478 90° East 296 341 9,200 -634 Descending Chicago Center
11:22PM 42.3742 -88.5492 89° East 273 314 9,000 -293 Descending Chicago Center
11:23PM 42.3483 -88.4706 114° Southeast 258 297 8,600 -488 Descending Chicago Center
11:24PM 42.2833 -88.4628 175° South 238 274 8,000 -293 Descending Chicago Center
11:25PM 42.2175 -88.4553 175° South 239 275 8,000 -341 Level Chicago Center
11:26PM 42.1394 -88.4436 174° South 237 273 7,300 -836 Descending Chicago Center
11:27PM 42.0756 -88.4386 177° South 232 267 6,300 -585 Descending Chicago Center
11:28PM 42.0122 -88.4297 174° South 231 266 6,100 -439 Descending Chicago Center
11:29PM 41.9692 -88.4022 155° Southeast 201 231 5,400 -537 Descending Chicago Center
11:30PM 41.9667 -88.3303 93° East 197 227 5,000 -195 Descending Chicago Center
11:31PM 41.9669 -88.2600 90° East 192 221 5,000 -197 Level Chicago Center
11:32PM 41.9675 -88.1869 89° East 193 222 4,600 -683 Descending Chicago Center
11:33PM 41.9686 -88.1197 89° East 190 219 3,600 -1,029 Descending Chicago Center
11:34PM 41.9667 -88.0667 93° East 155 178 2,800 -928 Descending Chicago TRACON
11:35PM 41.9667 -88.0167 90° East 119 137 2,100 -684 Descending Chicago TRACON
11:36PM 41.9667 -87.9833 90° East 116 133 1,500 -619 Descending Chicago TRACON
11:37PM 41.9667 -87.9333 90° East 120 138 800 -636 Descending Chicago TRACON
11:39PM 41.9667 -87.9000 143° Southeast  Level FlightAware Approximate